Regional Weather Roundup
Issued by NWS

Home | Current Version | Previous Version | Text Only | Print | Product List | Glossary Off
Versions: 1 2 3 4 5 6 7 8 9 10 11 12 13 14 15 16 17 18 19 20 21 22 23 24 25 26 27 28 29 30 31 32 33 34 35 36 37 38 39 40 41 42 43 44 45 46 47 48 49 50

000
ASUS44 KMEG 250510
RWRTN
TENNESSEE HOURLY STATE WEATHER ROUNDUP
NATIONAL WEATHER SERVICE MEMPHIS TN
1200 AM CDT SAT MAR 25 2017

TNZ002-004-019-021-049-052-054-088>092-250600-
WEST TENNESSEE

CITY           SKY/WX    TMP DP  RH WIND       PRES   REMARKS
MEMPHIS INTL   CLOUDY    70  60  70 S18G29    29.97S
NWS MEMPHIS      N/A     70 N/A N/A MISG        N/A
JACKSON        CLOUDY    69  58  67 S10G25    30.02F
DYERSBURG      CLOUDY    69  58  67 S15G22    29.98F
SOMERVILLE     PTCLDY    70  59  68 S14G29    30.00S
BOLIVAR        MOCLDY    68  57  68 SE18G24   30.03S
PARIS          CLEAR     66  54  63 S13       30.05F
HUNTINGDON     MOCLDY    68  55  64 S14G24    30.03F
SAVANNAH       MOCLDY    68  57  68 S12G21    30.07F
$$

TNZ008-025-027-028-033-062-065-066-250600-
NORTH MIDDLE TENNESSEE

CITY           SKY/WX    TMP DP  RH WIND       PRES   REMARKS
NASHVILLE      MOCLDY    64  51  62 S8        30.13F
PORTLAND       CLOUDY    64  52  63 SE12G18   30.12F
CLARKSVILLE    MOCLDY    66  52  60 S9        30.08F
SMYRNA         PTCLDY    60  52  74 CALM      30.15F
COOKEVILLE     MOCLDY    64  48  55 S9        30.16F
GALLATIN       MOCLDY    64  52  63 S5        30.16F
CROSSVILLE     PTCLDY    60  46  59 S8        30.23S
$$

TNZ061-075-076-078-094-096-097-250600-
SOUTH MIDDLE TENNESSEE

CITY           SKY/WX    TMP DP  RH WIND       PRES   REMARKS
FAYETTEVILLE   MOCLDY    64  52  63 S10       30.16F
WINCHESTER     CLEAR     64  50  59 S9        30.18F
MCMINNVILLE    CLEAR     64  48  55 VRB5      30.17F
COLUMBIA       CLEAR     66  54  63 S10       30.10F
SHELBYVILLE    CLEAR     68  54  60 S8        30.16F
$$

TNZ017-018-042-046-047-250600-
NORTHEAST TENNESSEE

CITY           SKY/WX    TMP DP  RH WIND       PRES   REMARKS
TRI CITIES     CLOUDY    54  46  74 CALM      30.28F
ELIZABETHTON   CLOUDY    57  46  67 CALM      30.29F
$$

TNZ012-013-036-069-073-074-250600-
CENTRAL EAST TENNESSEE

CITY           SKY/WX    TMP DP  RH WIND       PRES   REMARKS
KNOXVILLE      MOCLDY    64  45  49 CALM      30.22F
OAK RIDGE      CLOUDY    58  47  66 CALM      30.24F
DOWNTOWN KNOXV MOCLDY    55  52  88 CALM      30.23F
GATLINBURG     CLEAR     57  46  67 E3        30.23F
MORRISTOWN     MOCLDY    59  48  67 CALM      30.24F
JACKSBORO      PTCLDY    61  46  59 SE5       30.25F
$$

TNZ083-085-099-250600-
SOUTHEAST TENNESSEE

CITY           SKY/WX    TMP DP  RH WIND       PRES   REMARKS
CHATTANOOGA    PTCLDY    66  48  52 S6        30.22F
$$

SKY/WX REPORTED AS FAIR MEANS FEW OR NO CLOUDS BELOW
12 THOUSAND FEET.





USA.gov is the U.S. government's official web portal to all federal, state and local government web resources and services.